Location: Newark
(7.0858°N, 171.3717°E)
Time: 08:06:51
(UTC+00:00)

Courier 1B Rocket - Pass Details

Date: 05 December 2020
Orbit: 920 x 1202 km, 28.2° (Epoch: 17 January)

Event Time Altitude Azimuth Distance (km) Brightness Sun altitude
Rises 11:54:04 0° 235° (SW) 3,669 - -72.9°
Reaches altitude 10° 11:56:39 10° 233° (SW) 2,757 - -73.1°
Maximum altitude 12:03:21 71° 150° (SSE) 1,101 - -73.7°
Drops below altitude 10° 12:10:36 10° 67° (ENE) 2,966 - -74.2°
Sets 12:13:28 0° 65° (ENE) 3,964 - -74.4°
